Showing default

A-SEANSAT-PG1, 57197

Orbit data source: Space-Track

A-SEANSAT-PG1, 57197 is a payload satellite owned by ANGKASA-X (MY) in SSO that was launched on Tue, 27 Jun 2023 UTC via a SOYUZ-2-1B launch vehicle from the Vostochny Cosmodrome (VOSTO). Payload-class satellites include a variety of spacecraft equipped with specific instruments for various scientific and technological missions. These include communications satellites like Starlink; space stations such as the ISS; scientific satellites like the Hubble; Earth observation satellites from companies like Planet Labs, Umbra, and HawkEye 360; GPS; miniature CubeSats for education and research; and military/defense satellites.

Loading next visibility...
Identifier
57197, 2023-091AH
Orbit
SSO
Country
Flag of UnknownUnknown / MALA
Related business
Manufacturer
ANGKASA-X
Mission
Operational Commercial Communications
Bus & Motor
CUBESAT 6U, Unknown motor
Mass
10 kg wet, 10 kg dry
Launch date (UTC)
2023-06-27 (2 years ago)
Launch vehicle
SOYUZ-2-1B
Launch site
Vostochny Cosmodrome (VOSTO)
Object type
Payload
Rocket body
Debris
Shape & HBR
Box, 0.1 m
Radar Cross Section
0.080 m², Medium (>0.1 m² and < 1m²)

Expand to show TLE details & history
Last TLE update: 11 hours ago

TLE from 11 hours ago
0 A-SEANSAT-PG1
1 57197U 23091AH  25304.83733703  .00018711  00000-0  68217-3 0  9997
2 57197  97.5414   5.6188 0009215 161.1602 198.9980 15.28181548129732
Epoch: 2025-10-31T20:05Z
TLE epoch observation values (Epoch: 2025-10-31T20:05:45.919Z)
Latitude
-0.00001°
Longitude
23.80143°
Altitude
490.325 km
Speed
7.616 km/s
True Right ascension
00h 22m 28s
True Declination
0° 00' 00"
Sunlit
Object was in full shadow at epoch
Visualization orbit readout
Latitude
Unknown
Longitude
Unknown
Altitude
Unknown
Speed
Unknown
Apparent Right ascension
Unknown
Apparent Declination
Unknown
Sunlit
N/A
Visualization observer readout
Local Sidereal Time
02:42:37
Azimuth
Unknown
Elevation
Unknown
Doppler factor
Unknown
Orbital elements
Apogee altitude
484.527 km
Perigee altitude
471.891 km
Semi-major axis
6,856.346 km
Eccentricity
0.00092
Inclination
97.5414°
RAAN
5.6188°
Arg. of periapsis
161.1602°
True anomaly
198.96366°
Mean anomaly
198.998°
Eccentric anomaly
198.98083°
Mean motion
3.823 °/min
Orbital period
94.17 mins
BSTAR
0.00068217
Loading maneuver chart data...
Computing Atmospheric mass density...
Loading historical data...
Loading historical data...
Loading historical data...
Loading historical data...
Loading historical data...
Loading historical data...
Loading historical data...

Documentation

Showing up to 5 results
|